Location: Unspecified
(52.4292°N, 19.3359°E)
Time: 21:06:19
(UTC+02:00)

Tiros 1 - Pass Details

Date: 23 May 2024
Orbit: 624 x 657 km, 48.4° (Epoch: 16 June)

Event Time Altitude Azimuth Distance (km) Brightness Sun altitude
Rises 14:15:26 0° 252° (WSW) 2,976 11.0 53.3°
Reaches altitude 10° 14:17:49 10° 248° (WSW) 2,067 10.5 53.0°
Maximum altitude 14:22:26 51° 173° (S) 827 9.0 52.6°
Drops below altitude 10° 14:27:04 10° 98° (E) 2,067 9.6 52.1°
Sets 14:29:27 0° 93° (E) 2,977 10.3 51.9°
